AISat 1 (44104 NORAD) Tracking and Keplerian Element Data

This shows tracking and keplerian element data for the satellite.

Feedback or suggestion? Click here.




ElementValue
Catalog44104
NameAISat 1
Epoch Orbit1538
Epoch Day191.76831437
Epoch Year2019
RAAN253.4529
Inclination97.5082
Eccentricity0.0058708
Argument of Perigee350.207
Mean Anonmoly9.8021
Mean Motion15.30489273
Decay Rate5.66E-06
L11 44104U 19018AC 19191.76831437 .00000566 00000-0 20996-4 0 9999
L22 44104 97.5082 253.4529 0058708 350.2070 9.8021 15.30489273 15380

Live tracking and technical data element details for AISat 1 (NORAD 44104). AISat 1 can be tracked NOW for your location showing map with azimuth and elevation plus other details from your city location.

Track the satellite on the map from your city or location and see movement details for azimuth, elevation, latitude, longitude, range, height, and movement on the map or in text.







IsCatalogInMostPopularTable: catalog: 44104, numindb: 58
Update: records affected: 1



GetName: 44104 AISat 1

Hit Count: updated at: Tue, 16 Jul 2019 15:11:17 GMT